Austin, MN

11:19 AM CDT on May 25, 2018 (GMT -0500)
Austin Municipal

Weather History for KAUM - December, 2013

Change the Weather History Date:

Monday, December 23, 2013

  Actual Average Record
Temperature  
Mean Temperature -6 °F -  
Max Temperature -2 °F 23 °F 46 °F (2005)
Min Temperature -9 °F 11 °F -9 °F (1999)
Degree Days  
Heating Degree Days 70    
Moisture  
Dew Point -12 °F    
Average Humidity 77    
Maximum Humidity 85    
Minimum Humidity 71    
Precipitation  
Precipitation 0.00 in - - ()
Sea Level Pressure  
Sea Level Pressure 30.35 in    
Wind  
Wind Speed 12 mph (WNW)    
Max Wind Speed 18 mph    
Max Gust Speed 24 mph    
Visibility 9 miles    
Events Snow    
Averages and records for this station are not official NWS values.
T = Trace of Precipitation, MM = Missing Value Source: NWS Daily Summary

Daily Weather History Graph

Daily Weather History Graph

Search for Another Location

Airport or City:

Astronomy

Dec. 23, 2013 Rise Set
Actual Time 7:43 AM CST 4:38 PM CST
Civil Twilight 7:10 AM CST 5:11 PM CST
Nautical Twilight 6:33 AM CST 5:48 PM CST
Astronomical Twilight 5:58 AM CST 6:23 PM CST
Moon 11:00 PM CST (12/23) 10:58 AM CST (12/23)
Length of Visible Light 10h 01m
Length of Day
8h 55m
Waning Gibbous, 68% of the Moon is Illuminated
Dec 23
Waning Gibbous
Dec 25
Last Quarter
Jan 1
New
Jan 7
First Quarter
Jan 15
Full

Hourly Weather History & Observations

Time (CST) Temp. Windchill Dew Point Humidity Pressure Visibility Wind Dir Wind Speed Gust Speed Precip Events Conditions
12:14 AM -2.2 °F -19.9 °F -7.6 °F 78% 30.21 in 10.0 mi WNW 11.5 mph - N/A   Overcast
12:35 AM -2.2 °F -22.2 °F -7.6 °F 78% 30.22 in 10.0 mi WNW 15.0 mph 19.6 mph N/A   Mostly Cloudy
12:54 AM -2.2 °F -21.5 °F -7.6 °F 78% 30.22 in 10.0 mi WNW 13.8 mph - N/A   Mostly Cloudy
1:14 AM -2.2 °F -21.5 °F -7.6 °F 78% 30.22 in 10.0 mi WNW 13.8 mph - N/A   Scattered Clouds
1:34 AM -4.0 °F -22.1 °F -7.6 °F 85% 30.23 in 10.0 mi WNW 11.5 mph 19.6 mph N/A   Clear
1:54 AM -2.2 °F -21.5 °F -7.6 °F 78% 30.23 in 10.0 mi WNW 13.8 mph - N/A   Clear
2:15 AM -2.2 °F -18.9 °F -7.6 °F 78% 30.24 in 10.0 mi WNW 10.4 mph 19.6 mph N/A   Clear
2:34 AM -4.0 °F -22.1 °F -7.6 °F 85% 30.24 in 10.0 mi WNW 11.5 mph 16.1 mph N/A   Clear
2:54 AM -5.8 °F -26.0 °F -9.4 °F 84% 30.25 in 10.0 mi WNW 13.8 mph 19.6 mph N/A   Clear
3:15 AM -5.8 °F -24.4 °F -9.4 °F 84% 30.25 in 10.0 mi WNW 11.5 mph - N/A   Clear
3:34 AM -5.8 °F -24.4 °F -9.4 °F 84% 30.26 in 10.0 mi WNW 11.5 mph 19.6 mph N/A   Clear
3:54 AM -5.8 °F -26.8 °F -11.2 °F 77% 30.26 in 10.0 mi WNW 15.0 mph 19.6 mph N/A   Clear
4:15 AM -7.6 °F -28.3 °F -11.2 °F 84% 30.27 in 10.0 mi WNW 13.8 mph 21.9 mph N/A   Clear
4:34 AM -7.6 °F -27.5 °F -11.2 °F 84% 30.27 in 10.0 mi WNW 12.7 mph 18.4 mph N/A   Clear
4:54 AM -7.6 °F -27.5 °F -11.2 °F 84% 30.27 in 10.0 mi WNW 12.7 mph 16.1 mph N/A   Clear
5:15 AM -7.6 °F -24.6 °F -11.2 °F 84% 30.28 in 10.0 mi WNW 9.2 mph - N/A   Clear
5:34 AM -7.6 °F -29.8 °F -13.0 °F 77% 30.28 in 10.0 mi WNW 16.1 mph - N/A   Clear
5:54 AM -9.4 °F -29.8 °F -13.0 °F 84% 30.28 in 10.0 mi WNW 12.7 mph 20.7 mph N/A   Clear
6:14 AM -9.4 °F -30.6 °F -14.8 °F 77% 30.29 in 10.0 mi WNW 13.8 mph 20.7 mph N/A   Clear
6:34 AM -9.4 °F -28.9 °F -14.8 °F 77% 30.30 in 10.0 mi WNW 11.5 mph - N/A   Clear
6:55 AM -9.4 °F -30.6 °F -14.8 °F 77% 30.31 in 10.0 mi WNW 13.8 mph 18.4 mph N/A   Clear
7:14 AM -9.4 °F -30.6 °F -14.8 °F 77% 30.32 in 10.0 mi WNW 13.8 mph 19.6 mph N/A   Clear
7:34 AM -9.4 °F -30.6 °F -14.8 °F 77% 30.32 in 10.0 mi WNW 13.8 mph 18.4 mph N/A   Clear
7:55 AM -9.4 °F -32.1 °F -14.8 °F 77% 30.33 in 10.0 mi WNW 16.1 mph 19.6 mph N/A   Clear
8:14 AM -9.4 °F -33.5 °F -14.8 °F 77% 30.33 in 10.0 mi WNW 18.4 mph 21.9 mph N/A   Clear
8:34 AM -9.4 °F -31.4 °F -14.8 °F 77% 30.34 in 10.0 mi WNW 15.0 mph - N/A   Clear
8:55 AM -9.4 °F -33.5 °F -14.8 °F 77% 30.34 in 10.0 mi NW 18.4 mph 21.9 mph N/A   Clear
9:14 AM -7.6 °F -31.1 °F -14.8 °F 71% 30.35 in 10.0 mi WNW 18.4 mph - N/A   Clear
9:34 AM -7.6 °F -29.1 °F -14.8 °F 71% 30.36 in 10.0 mi WNW 15.0 mph 19.6 mph N/A   Clear
9:55 AM -7.6 °F -29.1 °F -14.8 °F 71% 30.37 in 7.0 mi WNW 15.0 mph 21.9 mph N/A   Clear
10:14 AM -7.6 °F -29.1 °F -13.0 °F 77% 30.37 in 7.0 mi WNW 15.0 mph - N/A   Clear
10:34 AM -7.6 °F -28.3 °F -13.0 °F 77% 30.37 in 7.0 mi WNW 13.8 mph 24.2 mph N/A   Clear
10:55 AM -5.8 °F -26.0 °F -13.0 °F 71% 30.37 in 7.0 mi WNW 13.8 mph 19.6 mph N/A   Clear
11:14 AM -5.8 °F -26.0 °F -13.0 °F 71% 30.37 in 10.0 mi WNW 13.8 mph - N/A   Clear
11:34 AM -5.8 °F -24.4 °F -11.2 °F 77% 30.37 in 10.0 mi WNW 11.5 mph 16.1 mph N/A   Clear
11:55 AM -5.8 °F -26.8 °F -11.2 °F 77% 30.36 in 7.0 mi NW 15.0 mph 21.9 mph N/A   Clear
12:14 PM -5.8 °F -25.2 °F -11.2 °F 77% 30.36 in 5.0 mi WNW 12.7 mph 19.6 mph N/A   Haze
12:34 PM -4.0 °F -23.0 °F -11.2 °F 71% 30.36 in 7.0 mi WNW 12.7 mph 20.7 mph N/A   Clear
12:55 PM -4.0 °F -24.5 °F -11.2 °F 71% 30.36 in 5.0 mi West 15.0 mph - N/A   Haze
1:14 PM -4.0 °F -23.7 °F -11.2 °F 71% 30.36 in 7.0 mi WNW 13.8 mph 20.7 mph N/A   Clear
1:34 PM -4.0 °F -22.1 °F -11.2 °F 71% 30.37 in 5.0 mi NW 11.5 mph 17.3 mph N/A   Haze
1:54 PM -4.0 °F -25.2 °F -11.2 °F 71% 30.37 in 4.0 mi WNW 16.1 mph 19.6 mph N/A   Haze
2:14 PM -4.0 °F -23.7 °F -9.4 °F 78% 30.37 in 5.0 mi WNW 13.8 mph 18.4 mph N/A   Haze
2:34 PM -4.0 °F -23.0 °F -9.4 °F 78% 30.36 in 7.0 mi WNW 12.7 mph 20.7 mph N/A   Overcast
2:55 PM -5.8 °F -26.8 °F -11.2 °F 77% 30.37 in 7.0 mi WNW 15.0 mph - N/A   Scattered Clouds
3:14 PM -5.8 °F -26.8 °F -11.2 °F 77% 30.38 in 10.0 mi NW 15.0 mph 19.6 mph N/A   Clear
3:34 PM -5.8 °F -24.4 °F -11.2 °F 77% 30.39 in 10.0 mi NW 11.5 mph 16.1 mph N/A   Scattered Clouds
3:55 PM -5.8 °F -22.4 °F -11.2 °F 77% 30.40 in 10.0 mi WNW 9.2 mph 18.4 mph N/A   Mostly Cloudy
4:14 PM -5.8 °F -24.4 °F -11.2 °F 77% 30.41 in 10.0 mi NW 11.5 mph - N/A   Clear
4:35 PM -7.6 °F -24.6 °F -11.2 °F 84% 30.41 in 10.0 mi NW 9.2 mph - N/A   Clear
4:54 PM -7.6 °F -25.7 °F -11.2 °F 84% 30.42 in 10.0 mi WNW 10.4 mph - N/A   Clear
5:14 PM -7.6 °F -28.3 °F -13.0 °F 77% 30.42 in 10.0 mi NW 13.8 mph - N/A   Clear
5:35 PM -7.6 °F -25.7 °F -13.0 °F 77% 30.42 in 10.0 mi NW 10.4 mph - N/A   Clear
5:54 PM -7.6 °F -26.6 °F -13.0 °F 77% 30.43 in 10.0 mi NW 11.5 mph - N/A   Clear
6:14 PM -7.6 °F -24.6 °F -13.0 °F 77% 30.43 in 10.0 mi NW 9.2 mph - N/A   Clear
6:35 PM -7.6 °F -26.6 °F -13.0 °F 77% 30.44 in 10.0 mi NW 11.5 mph - N/A   Clear
6:54 PM -7.6 °F -25.7 °F -13.0 °F 77% 30.44 in 10.0 mi WNW 10.4 mph - N/A   Clear
7:14 PM -7.6 °F -28.3 °F -13.0 °F 77% 30.44 in 10.0 mi WNW 13.8 mph - N/A   Scattered Clouds
7:35 PM -7.6 °F -24.6 °F -13.0 °F 77% 30.45 in 10.0 mi NW 9.2 mph - N/A   Clear
7:54 PM -7.6 °F -25.7 °F -13.0 °F 77% 30.45 in 10.0 mi NW 10.4 mph - N/A   Clear
8:14 PM -7.6 °F -23.4 °F -13.0 °F 77% 30.45 in 10.0 mi NW 8.1 mph - N/A   Clear
8:35 PM -7.6 °F -23.4 °F -13.0 °F 77% 30.44 in 10.0 mi NW 8.1 mph - N/A   Clear
8:54 PM -7.6 °F -22.1 °F -13.0 °F 77% 30.44 in 10.0 mi NW 6.9 mph - N/A Snow Light Snow
9:15 PM -7.6 °F -23.4 °F -13.0 °F 77% 30.45 in 10.0 mi WNW 8.1 mph - N/A   Clear
9:34 PM -7.6 °F -22.1 °F -13.0 °F 77% 30.44 in 10.0 mi NW 6.9 mph - N/A   Clear
9:54 PM -7.6 °F -23.4 °F -13.0 °F 77% 30.44 in 10.0 mi NW 8.1 mph - N/A   Clear
10:15 PM -7.6 °F -20.6 °F -14.8 °F 71% 30.44 in 10.0 mi NW 5.8 mph - N/A   Clear
10:34 PM -7.6 °F -22.1 °F -14.8 °F 71% 30.44 in 10.0 mi WNW 6.9 mph - N/A   Clear
10:54 PM -9.4 °F -20.9 °F -14.8 °F 77% 30.44 in 10.0 mi NW 4.6 mph - N/A   Clear
11:15 PM -9.4 °F -20.9 °F -14.8 °F 77% 30.44 in 10.0 mi NW 4.6 mph - N/A Snow Light Snow
11:34 PM -9.4 °F -20.9 °F -14.8 °F 77% 30.43 in 10.0 mi NW 4.6 mph - N/A Snow Light Snow
11:54 PM -9.4 °F -18.6 °F -14.8 °F 77% 30.44 in 10.0 mi West 3.5 mph - N/A   Clear